Home > Weather > Skien > Past weeks

Flag for Norway Past Weather in Skien, Norway — Yesterday and Last 2 Weeks

Now
57 °F

Clear.


Feels Like: 57 °F
Forecast: 48 / 57 °F
Wind: 3 mph from North

Location: Torp

Current Time: Aug 27, 2016 at 10:56:38 PM

Latest Report: Aug 27, 2016 at 9:50 PM


Visibility: 10 mi

Pressure: 30.07 "Hg

Humidity: 67%

Dew Point: 46 °F

Location of SkienLocation

Past Weather in Skien — Graph

°F

Skien Temperature Yesterday

Maximum temperature yesterday: 70 °F (at 6:20 PM)
Minimum temperature yesterday: 59 °F (at 11:50 PM)
Average temperature yesterday: 64 °F

High & Low Weather Summary for the Past Weeks

 TemperatureHumidityPressure
High73 °F (Aug 17, 5:50 PM)100% (Aug 12, 9:20 PM)30.27 "Hg (Aug 12, 9:20 PM)
Low52 °F (Aug 15, 3:20 AM)40% (Aug 17, 1:20 PM)29.65 "Hg (Aug 12, 9:20 PM)
Average61 °F86%29.99 "Hg
* Reported Aug 12 9:20 PM — Aug 27 9:20 PM, Skien, Weather by CustomWeather, © 2016

Note: Actual official high and low records may vary slightly from our data, if they occured in-between our weather recording intervals... More about our weather records

Advertising

Skien Weather History for the Previous 24 Hours

Scroll right to see more
 ConditionsComfort  
Time TempWeatherWind HumidityBarometerVisibility
9:20 PM
Sat, Aug 27
57 °FSunny.6 mph67%30.07 "Hg10 mi
8:50 PM59 °FSunny.6 mph63%30.07 "Hg10 mi
8:20 PM61 °FSunny.5 mph63%30.07 "Hg10 mi
7:50 PM63 °FSunny.6 mph52%30.07 "Hg10 mi
7:20 PM66 °FSunny.7 mph46%30.07 "Hg10 mi
6:50 PM66 °FPassing clouds.6 mph46%30.07 "HgN/A
6:20 PM68 °FPassing clouds.8 mph43%30.07 "HgN/A
5:50 PM68 °FPassing clouds.7 mph46%30.07 "HgN/A
5:20 PM68 °FPassing clouds.9 mph46%30.07 "HgN/A
4:50 PM68 °FSunny.9 mph43%30.07 "Hg10 mi
4:20 PM66 °FPassing clouds.10 mph49%30.07 "HgN/A
3:50 PM68 °FSunny.10 mph46%30.07 "Hg10 mi
3:20 PM68 °FSunny.12 mph46%30.07 "Hg10 mi
2:50 PM68 °FPassing clouds.10 mph43%30.07 "HgN/A
2:20 PM68 °FPassing clouds.9 mph46%30.07 "HgN/A
1:50 PM68 °FPassing clouds.10 mph46%30.04 "HgN/A
1:20 PM68 °FPassing clouds.12 mph46%30.04 "HgN/A
12:50 PM68 °FPassing clouds.10 mph46%30.04 "HgN/A
12:20 PM66 °FPassing clouds.13 mph49%30.04 "HgN/A
11:50 AM64 °FPassing clouds.13 mph56%30.04 "HgN/A
11:20 AM64 °FSunny.14 mph52%30.04 "Hg10 mi
10:50 AM63 °FSunny.12 mph59%30.01 "Hg10 mi
10:20 AM63 °FPassing clouds.10 mph59%30.01 "HgN/A
9:50 AM61 °FSunny.12 mph68%30.01 "Hg10 mi
9:20 AM59 °FSunny.10 mph72%30.01 "Hg10 mi
8:50 AM59 °FSunny.12 mph77%29.98 "Hg10 mi
8:20 AM57 °FSunny.12 mph82%29.98 "Hg10 mi
7:50 AM55 °FSunny.10 mph94%29.98 "Hg10 mi
7:20 AM54 °FSunny.12 mph100%29.95 "Hg10 mi
6:50 AM54 °FClear.10 mph100%29.95 "Hg10 mi
6:20 AM54 °FPassing clouds.7 mph94%29.92 "HgN/A
5:50 AM55 °FClear.12 mph88%29.92 "Hg10 mi
5:20 AM55 °FCool.14 mph94%29.89 "HgN/A
4:50 AM55 °FCool.15 mph94%29.89 "HgN/A
4:20 AM55 °FCool.14 mph94%29.89 "HgN/A
3:50 AM55 °FCool.14 mph94%29.89 "HgN/A
3:20 AM57 °FCool.15 mph88%29.89 "HgN/A
2:50 AM57 °FCool.15 mph88%29.89 "HgN/A
2:20 AM57 °FCool.10 mph94%29.89 "HgN/A
1:50 AM57 °FCool.12 mph100%29.86 "HgN/A
1:20 AM57 °FCool.15 mph100%29.86 "HgN/A
12:50 AM59 °FCool.16 mph94%29.86 "HgN/A
12:20 AM59 °FCool.16 mph94%29.86 "HgN/A
11:50 PM
Fri, Aug 26
59 °FCool.17 mph88%29.86 "HgN/A
11:20 PM61 °FCool.15 mph83%29.83 "HgN/A
10:50 PM61 °FClear.12 mph88%29.83 "Hg10 mi
10:20 PM61 °FClear.12 mph77%29.83 "HgN/A
Weather by CustomWeather, © 2016

See weather overviewHow to use our weather pages